Skip Page Navigation
NASA JPL Caltech
NASA Logo - Jet Propulsion Laboratory + View the NASA Portal
+ Center for Near-Earth Object Studies
JPL Home Earth Solar System Stars & Galaxies Technology
JPL Solar System Dynamics
BODIES ORBITS EPHEMERIDES TOOLS PHYSICAL DATA DISCOVERY FAQ SITE MAP
JPL Small-Body Database Browser
Search: [ help ]  
90371 (2003 PV7)
Classification: Main-belt Asteroid          SPK-ID: 2090371
Ephemeris | Orbit Diagram | Orbital Elements | Mission Design | Physical Parameters | Discovery Circumstances | Close-Approach Data ]

[ show orbit diagram ]
Orbital Elements at Epoch 2459000.5 (2020-May-31.0) TDB
Reference: JPL 22 (heliocentric ecliptic J2000)
 Element Value Uncertainty (1-sigma)   Units 
e .1201729960312236 4.7863e-08  
a 2.811347122303871 2.0909e-08 au
q 2.473499115732856 1.3245e-07 au
i 8.959382714244059 5.3803e-06 deg
node 281.2161028639264 2.8831e-05 deg
peri 358.2463398108323 3.6009e-05 deg
M 228.9612571124465 2.4467e-05 deg
tp 2459627.211050200582
(2022-Feb-16.71105020)
0.00012036 TDB
period 1721.750171747407
4.71
1.9208e-05
5.259e-08
d
yr
n .2090895682238472 2.3326e-09 deg/d
Q 3.149195128874886 2.3422e-08 au
  Orbit Determination Parameters
   # obs. used (total)      639  
   data-arc span      7469 days (20.45 yr)  
   first obs. used      1999-10-12  
   last obs. used      2020-03-24  
   planetary ephem.      DE431  
   SB-pert. ephem.      SB431-N16  
   condition code      0  
   norm. resid. RMS      .52287  
   source      ORB  
   producer      Otto Matic  
   solution date      2020-May-20 16:31:12  

Additional Information
 Earth MOID = 1.45705 au 
 Jupiter MOID = 1.9899 au 
 T_jup = 3.292 
[ show covariance matrix ]

Ephemeris | Orbit Diagram | Orbital Elements | Mission Design | Physical Parameters | Discovery Circumstances | Close-Approach Data ]

Physical Parameter Table
Parameter Symbol Value Units Sigma Reference Notes
absolute magnitude H 15.0   n/a MPO417443  

90371 (2003 PV7)          Discovered 2003-Aug-02 by NEAT at Haleakala
Reference: 20040830/Numbers.arcLast Updated: 2004-09-06

[ show close-approach data ]
Alternate Designations
 2003 PV7 = 1999 TK190 = 2002 JV128 
Ephemeris | Orbit Diagram | Orbital Elements | Mission Design | Physical Parameters | Discovery Circumstances | Close-Approach Data ]
ABOUT SSD CREDITS/AWARDS PRIVACY/COPYRIGHT GLOSSARY LINKS
FirstGov 2020-Oct-01 08:56 UT
(server date/time)  
NASA Home Page
Site Manager:   Ryan S. Park
Webmaster  Alan B. Chamberlin